Miscellaneous Local Product
Issued by NWS Hastings, NE

Home | Current Version | Previous Version | Graphics & Text | Print | Product List | Glossary On
Versions: 1 2 3 4 5 6 7 8 9 10 11 12 13 14 15 16 17 18 19 20 21 22 23 24 25 26 27 28 29 30 31 32 33 34 35 36 37 38 39 40 41 42 43 44 45 46 47 48 49 50
000
AXUS43 KGID 170202
MISGRI

GID CWA HOURLY WEATHER ROUNDUP
NATIONAL WEATHER SERVICE HASTINGS NE
900 PM CDT WED APR 16 2014

NOTE: "FAIR" INDICATES FEW OR NO CLOUDS BELOW 12,000 FEET WITH NO
SIGNIFICANT WEATHER AND/OR OBSTRUCTIONS TO VISIBILITY.

...SOUTH CENTRAL NEBRASKA...

CITY           SKY/WX    TMP DP  RH WIND       PRES   REMARKS
GRAND ISLAND   CLOUDY    37  27  67 N22       30.09R WCI  26
HASTINGS       MOCLDY    37  28  70 N20G29    30.06R WCI  27
KEARNEY        MOCLDY    37  28  70 N22       30.08R WCI  27
ORD            CLOUDY    33  25  72 N22       30.10R WCI  21
YORK           MOCLDY    36  28  75 NW17      30.06R WCI  25
AURORA         CLOUDY    38  29  71 N15G24    30.06R WCI  29
LEXINGTON      PTCLDY    38  30  74 N16       30.08R WCI  29
HOLDREGE       MOCLDY    38  31  73 N18G25    30.06R WCI  29
HEBRON         PTCLDY    40  30  67 N15G23    30.05R WCI  32

...NEBRASKA PANHANDLE...

CITY           SKY/WX    TMP DP  RH WIND       PRES   REMARKS
CHADRON        PTCLDY    39  32  76 E7        30.08R WCI  34
ALLIANCE       CLEAR     34  29  82 NE12      30.05R WCI  25
SCOTTSBLUFF    PTCLDY    42  30  62 NE12      30.03R
SIDNEY         CLEAR     41  27  57 NE14      30.04R

...WESTERN AND NORTH CENTRAL NEBRASKA...

CITY           SKY/WX    TMP DP  RH WIND       PRES   REMARKS
VALENTINE      CLOUDY    31  25  78 N13       30.12R WCI  21
AINSWORTH      CLOUDY    32  26  79 N16G23    30.12R WCI  21
ONEILL         CLOUDY    32  24  71 N17G31    30.11R WCI  21
BROKEN BOW     CLOUDY    33  27  78 N18       30.09R WCI  22
IMPERIAL       MOCLDY    41  32  70 NE9       30.06R
NORTH PLATTE   CLOUDY    37  28  70 N12G17    30.09R WCI  29
MCCOOK         CLOUDY    45  34  65 N10       30.06R

...EASTERN NEBRASKA...

CITY           SKY/WX    TMP DP  RH WIND       PRES   REMARKS
NORFOLK        CLOUDY    35  25  66 N21G28    30.05R WCI  24
SO SIOUX CITY  CLOUDY    35  29  78 NW29G37   29.99R WCI  22
TEKAMAH        CLOUDY    38  30  73 NW26G35   30.00R WCI  26
COLUMBUS       CLOUDY    36  23  60 NW20G30   30.04R WCI  25
ALBION         CLOUDY    35  26  67 N17G28    30.06R WCI  25
OMAHA EPPLEY   CLOUDY    39  31  72 NW25G35   29.98R WCI  28
OFFUTT AFB     MOCLDY    39  32  76 NW20G36   29.99R WCI  29
MILLARD        CLOUDY    39  30  71 NW15G25   29.98R WCI  30
LINCOLN        CLOUDY    42  28  57 NW22      30.04R
NEBRASKA CITY  CLEAR     41  32  70 NW24      29.96R
BEATRICE       CLEAR     40  30  66 NW22      30.03R WCI  30
FALLS CITY     MOCLDY    45  33  63 NW22G33   29.97R

...NORTHERN KANSAS...

CITY           SKY/WX    TMP DP  RH WIND       PRES   REMARKS
GOODLAND       CLOUDY    45  34  65 NE8       30.06R
HILL CITY      CLOUDY    51  33  50 NE9       30.05R
PHILLIPSBURG   CLEAR     48  34  57 N15       30.05R
SMITH CENTER   CLEAR     45  32  61 N17G24    30.06R
BELOIT         CLEAR     46  34  61 N13       30.03R
HAYS           CLOUDY    52  32  46 NE10      30.04R
RUSSELL        CLOUDY    52  34  50 N12       30.01R
CONCORDIA      CLOUDY    45  33  63 N15G23    30.04R
SALINA         PTCLDY    53  34  48 N20G29    29.99R
TOPEKA         MOCLDY    56  37  49 N17G26    29.97R



USA.gov is the U.S. government's official web portal to all federal, state and local government web resources and services.